Regional Weather Roundup
Issued by NWS

Home | Current Version | Previous Version | Text Only | Print | Product List | Glossary On
Versions: 1 2 3 4 5 6 7 8 9 10 11 12 13 14 15 16 17 18 19 20 21 22 23 24 25 26 27 28 29 30 31 32 33 34 35 36 37 38 39 40 41 42 43 44 45 46 47 48 49 50
000
ASUS44 KJAN 010610
RWRMS

MISSISSIPPI HOURLY WEATHER ROUNDUP
NATIONAL WEATHER SERVICE JACKSON MS
100 AM CDT WED OCT 01 2014

NOTE: "FAIR: INDICATES FEW OR NO CLOUDS BELOW 12,000 FEET WITH NO
SIGNIFICANT WEATHER AND/OR OBSTRUCTIONS TO VISIBILITY.

MSZ001>002-007>008-010>013-018>021-025>028-034>036-010700-
NORTHWEST MISSISSIPPI

CITY           SKY/WX    TMP DP  RH WIND       PRES   REMARKS
CLARKSDALE     FAIR      68  64  88 CALM      29.88S
CLEVELAND      FAIR      73  66  78 SE6       29.86S
GREENWOOD      CLEAR     67  62  84 CALM      29.87F
6HR MIN TEMP:  67; 6HR MAX TEMP:  78;

GREENVILLE     CLEAR     70  62  76 SE6       29.86S
6HR MIN TEMP:  70; 6HR MAX TEMP:  81;

GRENADA        FAIR      64  64 100 CALM      29.88F
OLIVE BRANCH   CLEAR     64  64 100 CALM      29.89F
OXFORD         FAIR      64  61  88 SE6       29.90F
TUNICA         CLEAR     66  61  82 CALM      29.88F
$$

MSZ003>006-009-014>017-022>024-029>033-037>039-010700-
NORTHEAST MISSISSIPPI

CITY           SKY/WX    TMP DP  RH WIND       PRES   REMARKS
COLUMBUS AFB   CLEAR     62  62 100 CALM      29.90S
6HR MIN TEMP:  62; 6HR MAX TEMP:  75;

CORINTH          N/A     61  59  94 CALM      29.90F
GOLDN TRIANGLE CLEAR     64  57  77 CALM      29.90S
STARKVILLE     FAIR      63  61  94 CALM      29.91R
TUPELO         CLEAR     65  61  87 CALM      29.90S
6HR MIN TEMP:  64; 6HR MAX TEMP:  77;

$$

MSZ040-058-010700-
CENTRAL MISSISSIPPI

CITY           SKY/WX    TMP DP  RH WIND       PRES   REMARKS
JACKSON INTL   CLEAR     68  64  87 CALM      29.89S
6HR MIN TEMP:  67; 6HR MAX TEMP:  79;

JACKSON HAWKNS CLEAR     72  65  78 E3        29.89S
6HR MIN TEMP:  72; 6HR MAX TEMP:  82;

MERIDIAN KEY   CLEAR     63  61  93 CALM      29.90S
6HR MIN TEMP:  62; 6HR MAX TEMP:  75;

MERIDIAN NAS   CLEAR     64  60  87 CALM      29.90S
6HR MIN TEMP:  64; 6HR MAX TEMP:  77;

RAYMOND        FAIR      66  63  88 CALM      29.88S
VICKSBURG      CLEAR     74  68  81 SE6       29.86F
6HR MIN TEMP:  69; 6HR MAX TEMP:  76;

$$

MSZ059>079-010700-
SOUTH MISSISSIPPI

CITY           SKY/WX    TMP DP  RH WIND       PRES   REMARKS
BROOKHAVEN     FAIR      72  70  94 CALM      29.91S
COLUMBIA       FAIR      68  68 100 CALM      29.88S
HATTIESBURG    CLEAR     69  67  93 CALM      29.91R
6HR MIN TEMP:  68; 6HR MAX TEMP:  78;

MCCOMB         CLEAR     72  70  93 SE3       29.89S FOG
6HR MIN TEMP:  72; 6HR MAX TEMP:  81;

NATCHEZ        CLEAR     73  70  88 SE6       29.88S
6HR MIN TEMP:  73; 6HR MAX TEMP:  79;

PINE BELT      CLEAR    N/A N/A N/A CALM      29.91R
$$

MSZ080>082-010700-
COASTAL MISSISSIPPI

CITY           SKY/WX    TMP DP  RH WIND       PRES   REMARKS
BILOXI         PTCLDY    74  73  98 E2        29.89S
6HR MIN TEMP:  73; 6HR MAX TEMP:  79;

PASCAGOULA     CLEAR     66  66 100 CALM      29.89F FOG
6HR MIN TEMP:  66; 6HR MAX TEMP:  74;

GULFPORT       MOCLDY    72  70  93 CALM      29.88S
6HR MIN TEMP:  72; 6HR MAX TEMP:  78;

$$



USA.gov is the U.S. government's official web portal to all federal, state and local government web resources and services.